Location: Budapest
(47.4979°N, 19.0402°E)
Time: 15:27:23
(UTC+01:00)

Tiangong 1 - Visible Passes

Search period start: 18 December 2017 00:00
Search period end: 28 December 2017 00:00
Orbit: 274 x 300 km, 42.8° (Epoch: 18 December)

Date Brightness Start Highest point End Pass type
(mag) Time Alt. Az. Time Alt. Az. Time Alt. Az.
21 Dec 3.6 05:47:32 10° S 05:48:39 12° SSE 05:49:47 10° SE visible
22 Dec 3.2 05:50:22 11° SSW 05:51:57 17° SSE 05:53:43 10° ESE visible
23 Dec 2.7 05:53:53 15° SSW 05:55:09 22° SSE 05:57:12 10° ESE visible
24 Dec 2.3 05:57:10 18° SW 05:58:17 25° S 06:00:27 10° ESE visible
25 Dec 2.2 06:00:15 19° SW 06:01:17 26° S 06:03:29 10° ESE visible
26 Dec 2.3 06:03:09 19° SW 06:04:12 25° S 06:06:20 10° SE visible
27 Dec 2.5 06:05:55 16° SW 06:06:57 21° SSW 06:08:57 10° SE visible
